Location: Apeadero de Los Molinos-Guadarrama
(40.7091°N, 4.0689°W)
Time: 11:53:40
(UTC+00:00)

ATLAS CENTAUR R/B - Pass Details

Date: 14 May 2021
Orbit: 472 x 671 km, 64.6° (Epoch: 13 June)

Event Time Altitude Azimuth Distance (km) Brightness Sun altitude
Exits shadow 23:43:19 20° 16° (NNE) 1,181 3.6 -30.0°
Drops below altitude 10° 23:44:39 10° 23° (NNE) 1,697 4.5 -30.1°
Sets 23:46:54 0° 29° (NNE) 2,610 5.5 -30.1°
